Regional Weather Roundup
Issued by NWS Grand Forks, ND

Home | Current Version | Previous Version | Text Only | Print | Product List | Glossary On
Versions: 1 2 3 4 5 6 7 8 9 10 11 12 13 14 15 16 17 18 19 20 21 22 23 24 25 26 27 28 29 30 31 32 33 34 35 36 37 38 39 40 41 42 43 44 45 46 47 48 49 50
000
ASUS43 KFGF 230931
RWRFGF
PRAIRIE TO PINES  WEATHER ROUNDUP
NATIONAL WEATHER SERVICE EASTERN NORTH DAKOTA/GRAND FORKS ND
400 AM CDT MON OCT 23 2017

 **SATELLITE DATA USED TO AUGMENT SKY COVER AT AUTOMATED STATIONS**
 *****  WEATHER ACROSS EASTERN NORTH DAKOTA  *****

CITY           SKY/WX    TMP DP  RH WIND       PRES   REMARKS
GRAND FORKS    MOCLDY    53  42  66 W15       29.61R
GRAND FRKS AFB CLEAR     52  37  58 NW18G29   29.62R
DEVILS LAKE    FAIR      46  36  68 W24G30    29.69R
FARGO          CLOUDY    53  44  71 W15       29.67R
WAHPETON ARPT  NOT AVBL
$$

 ***** WEATHER ACROSS CENTRAL AND WESTERN NORTH DAKOTA  *****

CITY           SKY/WX    TMP DP  RH WIND       PRES   REMARKS
BISMARCK       FAIR      50  37  61 W16G23    29.85R
MINOT          MOCLDY    44  35  70 W25G37    29.81R
JAMESTOWN      FAIR      51  38  60 W21G29    29.73R
MINOT AFB      MOCLDY    42  35  76 NW24G30   29.80R
GARRISON         N/A     45  34  65 NW16      29.83R
WILLISTON        N/A    N/A N/A N/A MISG      29.94R
DICKINSON      FAIR      44  35  70 W20       29.93R
HETTINGER      CLOUDY    45  35  68 W22G32    30.00R
$$

 *****  OTHER AIRPORT OBSERVATIONS IN OUR AREA  *****

CITY           SKY/WX    TMP DP  RH WIND       PRES   REMARKS
WALHALLA       FAIR     N/A N/A N/A NW10      29.62R
GRAFTON AIRPOR NOT AVBL
VALLEY CITY AR NOT AVBL
CANDO          FAIR      41  41 100 W18G25    29.70R
CAVALIER APRT  FAIR      48  39  71 W12G22    29.60R
GWINNER        PTSUNNY   54  39  58 W16G22    29.74R
SHEYENNE NWR     N/A     54  40  59 W13       29.95S
ROLLA          CLOUDY    41  39  93 NW26G32   29.71R
 ***** THE ABOVE OBSERVATIONS ARE NON NWS ARE NOT QUALITY
       CONTROLLED AND MAY MIS-REPORT RAIN FOR SNOW...
$$

  *****  WEATHER ACROSS NORTHERN MINNESOTA  *****

CITY           SKY/WX    TMP DP  RH WIND       PRES   REMARKS
FLAG ISLAND    FAIR      52  45  76 S10       29.53S
WARROAD        LGT RAIN  54  43  66 SW12      29.56R
ROSEAU         LGT RAIN  48  45  87 SW12      29.55S
HALLOCK        FAIR      46  39  76 W8        29.58R
THF RVR FALLS  LGT RAIN  51  46  83 W8        29.61S
BAUDETTE       CLOUDY    51  40  65 S13       29.57F
WASKISH        DRIZZLE   50  45  81 SW6       29.62R
CROOKSTON      MOCLDY    52  46  82 W22       29.63R
STEPHEN NDAWN    N/A     52  39  62 W9          N/A
GREENBUSH NDAW   N/A     50  43  76 W9          N/A
$$
  *****  WEATHER ACROSS CENTRAL AND WEST MINNESOTA  *****

CITY           SKY/WX    TMP DP  RH WIND       PRES   REMARKS
FOSSTON        CLOUDY    46  43  87 SW3       29.64S
BEMIDJI        MOCLDY    51  38  60 SW3       29.63R
PARK RAPIDS    FAIR      53  39  59 SW12      29.64S
ELBOW LAKE     FAIR      55  42  61 W17G23    29.72S
WADENA         FAIR      54  39  58 SW12G17   29.67F
DETROIT LAKES  FAIR      54  41  62 W10       29.67S
MOORHEAD       MOCLDY    54  43  66 W16       29.68R
FERGUS FALLS   FAIR      54  43  66 W10       29.70S
MORRIS MN      FAIR      55  43  62 W14       29.73R
STAPLES        FAIR      52  36  54 SW10      29.68S
$$
  *****  WEATHER ELSEWHERE ACROSS MINNESOTA  *****

CITY           SKY/WX    TMP DP  RH WIND       PRES   REMARKS
DULUTH         CLOUDY    52  33  48 S14G22    29.73F
INTRNTL FALLS  CLOUDY    54  34  46 S5        29.61F
ELY            CLOUDY    52  30  43 S8        29.70F
CLOQUET        CLOUDY    54  30  40 S7        29.73F
WHEATON        FAIR      55  39  54 W15G22    29.75R
BRAINERD       MOCLDY    54  35  48 S15       29.70F
HIBBING        CLOUDY    50  33  52 S7        29.69F
ALEXANDRIA     CLOUDY    53  40  61 SW12      29.73F
SAINT CLOUD    CLOUDY    51  38  60 S8        29.75F
MINNEAPOLIS    MOCLDY    54  35  48 S8        29.81F
$$

  *****  WEATHER ACROSS SOUTH DAKOTA  *****

CITY           SKY/WX    TMP DP  RH WIND       PRES   REMARKS
SIOUX FALLS    FAIR      49  36  61 CALM      29.83F
BROOKINGS      FAIR      48  38  68 W8        29.82F
WATERTOWN      FAIR      53  43  68 W15       29.80R
HURON          FAIR      55  43  63 W21       29.87R
SISSETON         N/A     56  42  59 W20G35    29.73R
ABERDEEN       FAIR      52  41  66 W21G32    29.81R
MITCHELL       MOCLDY    57  42  57 W16       29.89R
PIERRE         FAIR      54  41  61 W21G26    29.96R
MOBRIDGE       FAIR      50  38  63 W23G31    29.87R
RAPID CITY     FAIR      51  21  30 NW31G45   30.11R
$$

  *****  SOME WEATHER IN NEARBY STATES *****

CITY           SKY/WX    TMP DP  RH WIND       PRES   REMARKS
GLASGOW MT     MOCLDY    43  33  68 W12       30.06R
GREAT FALLS MT FAIR      45  21  38 W22G32    30.24R
CHEYENNE WY    FAIR      53  28  38 NW28G40   30.20S
SCOTTSBLUFF NE FAIR      48  34  58 N28G45    30.19R
OMAHA NE       FAIR      46  36  68 SE9       29.87F
DES MOINES IA  FAIR      46  41  82 S10       29.93F
DAVENPORT IA   FOG       44  43  96 W3        29.99S VSB 1/2
CHICAGO IL     RAIN      51  49  92 N7        29.93F FOG
EAU CLAIRE WI  CLOUDY    47  42  83 S5        29.88F
LA CROSSE WI   FAIR      47  44  90 SE9       29.92F
$$

  *****  SOME NATIONAL WEATHER *****

CITY           SKY/WX    TMP DP  RH WIND       PRES   REMARKS
LA GUARDIA NY  MOCLDY    62  60  93 CALM      30.32S
RALEIGH NC     MOCLDY    63  61  93 SE8       30.21F
ATLANTA GA     LGT RAIN  68  68 100 SE10G17   29.98F FOG
NEW ORLEANS LA FAIR      64  61  90 NW7       30.01F
OKLAHOMA CITY  FAIR      49  39  68 VRB3      30.07F
ALBUQUERQUE NM FAIR      58  22  24 N8        30.37S
SALT LAKE CITY FAIR      51  35  54 CALM      30.45R
LOS ANGELES CA FAIR      72  42  34 VRB3      30.05S
BOISE ID       FOG       42  41  96 S3        30.50R VSB 1/4
SEATTLE WA     MOCLDY    50  46  86 SE5       30.52R
$$

*** WEATHER ACROSS MANITOBA...SASKATCHEWAN AND ONTARIO ***
                ***ONTARIO***

CITY           SKY/WX    TMP DP  RH WIND       PRES   REMARKS
GERALDTON      MOCLDY    43  41  93 S7        29.80F
THUNDER BAY    CLOUDY    55  39  54 S15       29.77F
SIOUX LOOKOUT  MOCLDY    52  36  54 S8        29.60F
TORONTO        PTCLDY    59  55  88 SE5       30.04F
BIG TROUT LK   CLOUDY    41  34  75 W14G22    29.53R
PICKLE LAKE    NOT AVBL
DRYDEN         CLEAR     50  37  62 S8        29.59S
KENORA         PTCLDY    48  39  71 S5        29.56S
$$
                *** MANITOBA***

CITY           SKY/WX    TMP DP  RH WIND       PRES   REMARKS
BRANDON        LGT RAIN  41  39  93 NW14G23   29.73R
DAUPHIN        CLEAR     34  32  93 W7        29.76R
ISLAND LAKE    CLOUDY    39  32  75 NW13G22   29.58R
PILOT MOUND      N/A     43  37  81 NW16G22     N/A
THE PAS        CLOUDY    37  27  65 NW17      29.71R
THOMPSON       FLURRIES  32  30  93 W8        29.57R WCI  25
WINNIPEG       LGT RAIN  43  39  87 N10       29.61R
LYNN LAKE      PTCLDY    30  28  93 NW10      29.64R WCI  21
CHURCHILL      CLOUDY    30  28  93 NW38G52   29.16R WCI  14
GILLAM         FLURRIES  32  28  86 NW20G30   29.44R WCI  20
$$
                ***SASKATCHEWAN***

CITY           SKY/WX    TMP DP  RH WIND       PRES   REMARKS
ESTEVAN        PTCLDY    39  36  87 NW15      29.88R
KINDERSLEY     PTCLDY    34  30  86 W8        29.99R
LLOYDMINSTER   CLEAR     37  32  81 W15G21    29.92R
PRINCE ALBERT  CLOUDY    34  32  93 W9        29.84R FOG
REGINA         CLOUDY    37  36  93 W16       29.91R
YORKTON        PTCLDY    36  34  93 W12G18    29.81R
N. BATTLEFORD  CLOUDY    43  36  75 W16G23    29.92R
LA RONGE       CLOUDY    34  30  86 W8        29.81R
SASKATOON      MOCLDY    37  34  87 W10       29.90R
SWIFT CURRENT  CLOUDY    39  30  70 W14       30.00R
$$
NOTE: THESE ARE AUTOMATED STATIONS WITH LIMITED QUALITY CONTROL
      "FAIR" INDICATES FEW OR NO CLOUDS BELOW 12,000 FEET WITH NO
      SIGNIFICANT WEATHER AND/OR OBSTRUCTIONS TO VISIBILITY.
      SKY/WX - SKY CONDITION AND SIGNIFICANT WEATHER.
      TMP - AIR TEMPERATURE.    DP   - DEWPOINT TEMPERATURE.
      RH  - RELATIVE HUMIDITY.  PRES - PRESSURE.
      HX  - HEAT INDEX.         WCI  - WIND CHILL INDEX.
$




USA.gov is the U.S. government's official web portal to all federal, state and local government web resources and services.